Showing default

SHIYAN 29, 65486

Orbit data source: Space-Track

SHIYAN 29, 65486 is a payload satellite owned by CNSA (CN) in GEO that was launched on Fri, 05 Sep 2025 UTC via a CHANG ZHENG 3C/YZ-1 launch vehicle from the Xichang Space Center, China (XSC). Payload-class satellites include a variety of spacecraft equipped with specific instruments for various scientific and technological missions. These include communications satellites like Starlink; space stations such as the ISS; scientific satellites like the Hubble; Earth observation satellites from companies like Planet Labs, Umbra, and HawkEye 360; GPS; miniature CubeSats for education and research; and military/defense satellites.

Not visible in the next 10 days
Identifier
65486, 2025-196A
Orbit
GEO
Country
Flag of CNCN / PRC
Related business
Manufacturer
IMI/CAS
Mission
Operational Defense Technology
Bus & Motor
SECM3000, AKM?
Mass
~1,150 kg wet, ~850 kg dry
Launch date (UTC)
2025-09-05 (1 year ago)
Launch vehicle
CHANG ZHENG 3C/YZ-1
Launch site
Xichang Space Center, China (XSC)
Object type
Payload
Rocket body
Debris
Shape & HBR
Box + 2 Pan, 1.1 m
Radar Cross Section
9.494 m², Large (>1 m²)

Expand to show TLE details & history
Last TLE update: 6 hours ago

TLE from 6 hours ago
0 SHIYAN 29
1 65486U 25196A   26236.66842883 -.00000263  00000-0  00000-0 0  9998
2 65486  28.8941  17.6735 0014347 178.7695 111.9302  1.00264662  3562
Epoch: 2026-08-24T16:02Z
TLE epoch observation values (Epoch: 2026-08-24T16:02:32.250Z)
Latitude
-26.86053°
Longitude
97.58066°
Altitude
35,818.866 km
Speed
3.073 km/s
True Right ascension
20h 44m 38s
True Declination
-26° 50' 14"
Sunlit
Object was in daylight at epoch
Visualization orbit readout
Latitude
Unknown
Longitude
Unknown
Altitude
Unknown
Speed
Unknown
Apparent Right ascension
Unknown
Apparent Declination
Unknown
Sunlit
N/A
Visualization observer readout
Local Sidereal Time
13:06:40
Azimuth
Unknown
Elevation
Unknown
Doppler factor
Unknown
Orbital elements
Apogee altitude
35,849.794 km
Perigee altitude
35,728.799 km
Semi-major axis
42,167.433 km
Eccentricity
0.00143
Inclination
28.8941°
RAAN
17.6735°
Arg. of periapsis
178.7695°
True anomaly
112.08261°
Mean anomaly
111.9302°
Eccentric anomaly
112.00641°
Mean motion
0.25066 °/min
Orbital period
1,436.23 mins
BSTAR
0
Loading maneuver chart data...
Computing Atmospheric mass density...
Loading historical data...
Loading historical data...
Loading historical data...
Loading historical data...
Loading historical data...
Loading historical data...
Loading historical data...
Other satellites on launch #196 in the year 2025 (2025-09-05 UTC)

Documentation

Showing up to 5 results
|